Wind_Speed
30 31 31 32 33 33 34 34 34 35 36 37 37 38 38 39 39 40 40 40 41 41 42 43 43 44 44 45 45 47 47 48 49 50 50 50 50 50 50 50 50 51 52
32 32 33 34 34 35 35 35 36 37 37 38 38 38 39 39 40 40 40 40 41 41 41 41 42 43 43 44 45 46 46 46 46 46 47 47 47 47 47 47 47 48 48
32 33 34 34 35 36 36 37 38 38 38 39 39 40 40 40 40 40 40 40 40 41 41 41 41 42 42 42 43 43 42 42 42 42 42 42 42 43 43 43 43 43 42
33 34 34 35 36 36 37 38 38 39 39 39 39 39 39 40 39 39 38 38 39 38 39 39 39 40 39 38 38 37 37 37 36 36 37 37 38 38 38 38 38 39 38
33 34 34 35 36 36 36 37 37 38 38 39 39 38 38 38 37 37 37 37 37 37 37 37 36 36 35 34 34 34 33 33 33 34 34 34 34 34 34 34 34 34 32
31 32 32 33 34 34 34 35 35 36 36 36 36 36 36 35 35 35 35 35 35 35 34 33 32 31 30 30 30 30 30 30 30 30 30 29 29 29 29 29 28 27 26
29 29 29 30 31 31 31 32 32 32 32 32 32 32 32 32 33 34 33 33 32 31 30 29 28 27 27 27 26 26 26 26 26 26 25 26 25 25 25 24 24 24 23
26 26 27 27 28 28 27 28 28 29 30 30 30 30 30 31 31 31 30 29 28 28 27 25 24 23 23 23 23 23 24 24 24 23 23 23 23 22 22 22 22 22 22
25 25 25 25 26 26 26 27 27 28 29 29 29 29 29 29 28 28 27 26 25 24 22 20 20 20 21 21 22 22 22 22 22 22 22 21 21 20 21 21 21 21 21
22 23 23 24 24 25 26 26 26 26 27 27 26 26 25 25 24 23 23 22 21 20 19 18 18 19 19 20 20 21 21 21 21 21 21 20 20 20 20 21 20 20 20
20 21 22 22 23 23 23 23 24 24 24 24 24 23 22 21 21 20 20 19 18 17 16 16 16 16 17 18 19 20 20 20 20 20 19 19 19 19 20 20 20 19 20
19 20 20 20 21 21 21 21 21 21 21 21 20 20 20 20 19 18 17 16 15 14 14 14 15 15 16 17 18 19 19 19 19 19 19 19 19 19 19 19 19 19 19
18 18 18 18 18 18 18 18 18 18 18 18 18 18 18 17 16 15 15 14 13 13 13 13 14 15 16 17 17 18 18 19 19 19 18 18 18 18 18 18 18 18 18
16 16 16 17 16 17 17 17 16 16 15 15 16 15 15 14 14 13 12 12 12 12 12 13 14 15 15 16 16 17 18 18 18 18 18 18 17 17 17 17 17 17 17
14 14 14 15 15 15 14 14 14 14 14 14 13 12 12 11 11 11 10 10 10 11 11 12 14 14 15 15 16 17 17 18 18 17 17 17 16 16 16 16 16 16 16
11 11 12 12 13 12 12 12 12 12 12 12 11 11 10 10 10 9 9 9 9 10 11 12 13 13 14 15 15 16 17 17 17 17 16 16 15 15 14 14 15 15 15
9 10 10 10 10 10 10 10 11 10 10 10 9 9 9 8 8 8 8 8 9 10 11 11 12 13 14 14 15 16 17 17 17 16 15 15 14 13 13 13 14 14 15
8 8 8 8 8 8 8 9 9 9 9 9 8 7 7 7 7 7 7 8 8 9 10 11 12 13 13 14 15 16 16 16 16 15 14 14 13 12 12 12 12 13 14
8 7 7 7 7 7 7 8 7 8 8 7 6 6 6 6 6 6 6 7 8 9 10 11 12 13 14 14 15 15 15 15 15 14 13 13 12 12 11 11 12 13 13
8 8 8 8 8 7 7 7 7 7 6 6 5 5 5 5 5 5 6 7 8 9 10 11 12 13 14 14 14 14 14 14 13 13 12 12 11 11 11 11 11 12 12
9 9 9 8 8 7 7 7 7 6 5 5 4 4 4 4 5 6 6 7 8 9 10 11 12 13 14 14 14 14 14 13 12 12 11 10 11 10 10 11 11 12 12
11 11 10 10 9 9 8 8 7 6 5 5 5 4 4 4 5 6 7 8 9 9 10 11 12 13 13 13 13 13 13 12 12 11 10 10 10 10 10 11 11 11 11
12 12 12 12 11 10 10 9 8 7 6 6 5 5 5 5 6 6 7 8 9 10 11 11 12 13 13 13 13 13 12 12 11 11 10 10 10 10 10 11 11 11 11
14 13 13 13 13 13 12 11 9 8 7 7 7 6 6 6 7 7 8 9 10 10 11 12 12 13 13 13 13 12 12 12 11 11 10 10 10 11 11 11 11 12 12
16 15 15 14 14 14 14 13 11 10 9 8 8 8 8 8 8 8 9 10 10 11 12 12 13 13 13 13 13 12 12 12 12 12 12 12 12 12 13 13 13 14 14
17 17 16 16 16 15 15 14 13 12 10 9 9 9 9 9 9 9 10 11 11 12 12 13 13 13 13 13 13 13 13 13 13 13 13 13 14 14 15 15 15 16 16
Wind_Direction
267 268 271 273 274 276 278 279 279 280 282 283 285 285 286 286 286 286 287 288 289 289 289 289 290 290 290 289 289 289 289 289 288 288 288 288 289 289 289 289 289 288 288
268 270 271 272 274 275 277 278 279 281 282 283 284 284 285 286 286 286 288 289 290 289 290 290 290 291 291 290 290 290 290 290 290 290 290 291 291 291 291 291 292 292 292
269 271 272 274 275 276 277 278 280 281 282 283 284 285 286 287 288 288 289 289 289 289 290 291 291 291 291 291 291 292 292 292 292 293 293 294 294 295 295 296 296 296 296
270 272 274 275 276 277 278 279 280 282 283 284 285 286 287 288 288 288 287 288 289 290 290 290 292 293 293 293 294 295 296 297 298 298 298 299 299 299 299 300 301 301 300
272 274 274 275 277 278 279 280 282 283 284 284 285 286 287 287 287 288 288 289 289 290 290 290 292 293 294 296 297 299 300 301 302 303 303 304 304 304 304 305 305 306 306
274 275 277 277 278 279 281 282 283 284 284 284 285 285 285 286 287 287 288 288 289 290 291 292 293 295 297 299 301 302 304 306 308 309 310 312 313 313 313 313 314 315 314
274 276 278 279 281 281 281 282 283 284 285 285 285 285 285 285 285 285 287 289 290 290 292 294 296 297 300 303 305 307 309 311 313 314 316 318 319 320 321 322 323 323 323
276 278 279 280 281 282 282 283 283 284 283 284 285 285 285 286 286 287 288 289 290 291 293 294 296 299 303 306 309 311 312 314 316 318 319 321 322 324 326 328 330 331 331
275 276 278 279 281 281 282 282 284 285 286 286 286 286 287 288 288 288 289 290 290 292 292 294 297 300 304 309 312 314 315 317 318 319 320 322 325 328 332 334 334 335 336
277 278 278 279 280 281 282 284 285 286 286 286 286 287 288 289 289 290 290 291 291 292 293 295 298 303 308 312 314 316 318 320 322 322 324 326 328 331 333 334 336 337 339
277 277 279 280 282 284 286 286 287 287 287 287 288 288 289 290 291 291 291 292 292 293 295 298 302 307 312 315 317 319 321 322 323 324 326 327 328 331 333 335 337 340 342
277 279 281 283 285 286 286 287 288 289 290 290 291 291 291 290 291 292 292 292 292 294 298 302 307 311 315 317 319 321 323 324 324 325 326 327 329 331 334 336 339 341 345
279 281 282 285 288 288 288 289 290 292 292 293 294 293 292 291 291 291 290 291 293 295 300 304 308 314 318 319 321 325 327 327 327 327 328 328 330 332 334 337 341 344 347
283 285 285 287 289 288 288 289 291 293 295 297 298 297 296 293 292 291 292 292 294 297 301 307 312 317 320 322 326 327 328 327 327 327 328 330 332 335 338 340 343 345 347
292 291 289 290 290 289 288 290 294 298 300 301 301 300 299 299 297 295 295 295 297 300 305 311 315 318 322 327 328 327 328 329 330 330 330 331 333 336 339 342 345 347 349
301 300 299 296 294 292 292 294 296 300 304 305 302 300 300 301 300 301 301 300 303 309 313 316 319 321 324 327 327 328 330 332 333 333 334 334 335 337 341 344 347 350 352
316 312 310 305 301 300 300 300 301 303 308 309 306 305 305 305 306 307 308 308 311 316 319 322 324 326 328 330 331 332 333 335 336 336 337 338 339 341 344 346 349 352 354
333 329 326 321 315 312 311 311 310 311 309 308 309 313 316 314 314 315 316 316 320 323 326 328 329 330 331 333 335 337 338 339 340 341 342 343 344 345 348 351 353 356 357
351 348 345 342 336 328 324 323 321 321 319 316 315 319 323 323 323 325 326 328 330 332 334 334 333 334 336 339 342 343 343 344 345 346 346 347 349 351 355 358 1 1 1
6 1 356 353 350 346 343 340 337 336 336 334 331 331 332 332 335 339 339 339 338 338 339 339 340 342 343 345 346 347 348 349 350 351 351 354 357 1 4 7 8 7 8
17 12 6 2 2 2 359 357 357 357 357 357 357 356 354 353 354 354 350 347 345 345 345 346 347 348 349 351 352 353 354 354 354 356 359 2 6 10 13 14 16 16 17
29 25 21 16 15 13 10 10 14 18 19 19 18 18 17 15 9 3 359 356 354 352 352 353 354 354 355 356 358 359 0 2 4 7 9 13 16 17 18 21 24 27 28
34 30 28 27 26 24 23 25 29 33 35 35 34 33 32 29 21 13 8 4 1 0 1 2 1 2 3 4 5 7 9 12 15 17 21 24 25 25 27 31 35 38 40
36 34 33 33 32 31 32 33 35 38 41 42 43 43 39 33 28 21 15 12 10 10 10 8 8 10 12 13 14 16 19 22 25 28 31 34 36 39 41 44 47 50 52
39 37 36 35 35 36 37 38 39 41 44 46 46 44 41 37 33 27 23 19 18 17 17 17 18 20 21 22 24 28 31 34 37 39 42 46 49 54 56 57 59 61 63
39 37 37 38 38 38 38 39 40 43 45 47 47 46 44 41 38 35 31 28 27 27 26 26 27 28 30 32 36 39 43 46 48 50 53 56 59 62 65 66 67 69 69
Height
5787 5787 5788 5787 5786 5786 5786 5785 5784 5783 5782 5781 5779 5777 5775 5774 5771 5769 5767 5764 5762 5759 5756 5753 5750 5746 5743 5739 5735 5731 5727 5722 5717 5712 5707 5703 5698 5693 5687 5682 5676 5671 5666
5779 5779 5779 5779 5778 5778 5777 5776 5775 5774 5772 5770 5769 5767 5765 5763 5761 5759 5756 5753 5750 5748 5745 5741 5738 5734 5731 5727 5723 5718 5714 5709 5705 5700 5695 5690 5685 5680 5674 5669 5663 5658 5653
5772 5771 5771 5770 5769 5769 5768 5767 5765 5764 5762 5760 5758 5756 5754 5752 5750 5748 5745 5742 5739 5737 5733 5730 5727 5723 5719 5715 5711 5706 5702 5698 5693 5688 5683 5678 5673 5668 5662 5657 5652 5646 5641
5763 5763 5763 5762 5760 5759 5758 5757 5755 5754 5752 5750 5748 5746 5744 5742 5739 5737 5734 5732 5729 5726 5722 5719 5716 5712 5708 5704 5700 5696 5691 5687 5682 5678 5673 5668 5662 5657 5652 5647 5642 5636 5631
5755 5754 5753 5752 5751 5750 5749 5747 5745 5744 5742 5740 5738 5736 5734 5732 5729 5727 5724 5722 5719 5715 5712 5709 5706 5702 5698 5695 5691 5686 5682 5677 5673 5669 5664 5659 5653 5648 5644 5639 5633 5628 5622
5747 5746 5744 5743 5742 5741 5739 5738 5736 5734 5732 5730 5728 5726 5724 5722 5720 5717 5715 5712 5709 5706 5703 5700 5696 5693 5690 5686 5682 5678 5674 5670 5666 5661 5656 5651 5646 5642 5637 5632 5626 5622 5617
5738 5737 5736 5735 5733 5732 5730 5729 5727 5725 5723 5721 5719 5717 5715 5713 5710 5708 5705 5702 5700 5697 5694 5691 5688 5685 5682 5679 5675 5671 5668 5664 5660 5656 5651 5646 5641 5637 5632 5627 5622 5617 5612
5730 5729 5728 5727 5726 5724 5722 5721 5719 5717 5715 5713 5711 5709 5706 5704 5702 5699 5696 5694 5691 5689 5687 5684 5681 5679 5676 5673 5670 5666 5663 5659 5655 5650 5646 5642 5638 5633 5628 5624 5619 5614 5609
5723 5722 5721 5720 5718 5717 5715 5713 5711 5709 5707 5705 5703 5701 5698 5696 5694 5692 5689 5687 5685 5682 5680 5678 5676 5673 5671 5668 5665 5661 5658 5654 5650 5646 5642 5638 5634 5629 5625 5620 5616 5611 5606
5716 5715 5714 5713 5711 5709 5708 5706 5704 5702 5700 5698 5695 5693 5691 5689 5687 5685 5683 5680 5678 5677 5675 5673 5671 5668 5666 5663 5660 5657 5653 5649 5646 5642 5638 5634 5630 5626 5622 5618 5613 5609 5604
5710 5709 5707 5706 5704 5702 5701 5699 5697 5695 5693 5691 5689 5687 5685 5683 5681 5679 5677 5675 5674 5672 5670 5668 5666 5664 5662 5659 5656 5653 5649 5646 5642 5639 5635 5631 5627 5624 5620 5615 5611 5607 5602
5704 5703 5701 5700 5698 5696 5695 5693 5691 5689 5687 5685 5683 5681 5679 5677 5676 5674 5673 5671 5669 5668 5666 5665 5663 5661 5658 5655 5652 5649 5646 5642 5639 5636 5632 5628 5625 5621 5617 5613 5609 5604 5600
5699 5697 5696 5694 5693 5691 5689 5688 5686 5684 5682 5680 5678 5676 5674 5673 5671 5670 5669 5667 5666 5665 5663 5662 5660 5657 5655 5652 5649 5646 5643 5639 5636 5632 5629 5625 5622 5618 5614 5610 5606 5602 5599
5693 5692 5691 5689 5688 5686 5685 5683 5681 5680 5678 5676 5674 5672 5670 5669 5667 5666 5665 5664 5663 5662 5660 5659 5657 5654 5652 5649 5646 5643 5640 5636 5633 5630 5626 5623 5619 5616 5612 5608 5605 5601 5597
5689 5688 5686 5685 5683 5682 5680 5679 5677 5676 5674 5672 5670 5669 5667 5666 5664 5663 5662 5661 5660 5659 5657 5656 5654 5651 5649 5646 5643 5640 5637 5633 5630 5626 5623 5620 5616 5613 5610 5607 5603 5600 5596
5686 5684 5682 5681 5679 5678 5676 5675 5674 5672 5671 5669 5667 5666 5664 5663 5662 5661 5660 5659 5657 5656 5655 5653 5651 5648 5646 5644 5641 5637 5634 5631 5627 5624 5620 5617 5614 5611 5608 5605 5602 5599 5596
5683 5681 5679 5678 5676 5675 5673 5672 5671 5670 5668 5666 5665 5663 5662 5661 5660 5659 5658 5657 5655 5654 5652 5650 5648 5646 5644 5641 5638 5635 5631 5628 5624 5621 5618 5615 5612 5609 5607 5604 5601 5598 5595
5681 5679 5677 5675 5674 5672 5671 5670 5668 5667 5665 5664 5662 5661 5660 5659 5658 5657 5656 5655 5654 5652 5650 5648 5646 5644 5641 5638 5635 5632 5629 5625 5622 5619 5616 5613 5611 5608 5605 5603 5600 5598 5595
5679 5678 5676 5674 5672 5671 5670 5668 5666 5665 5663 5662 5661 5660 5659 5658 5657 5656 5655 5654 5652 5650 5649 5646 5644 5642 5639 5636 5633 5630 5627 5623 5620 5617 5615 5612 5610 5607 5605 5602 5600 5598 5595
5679 5677 5675 5673 5672 5670 5668 5667 5665 5663 5662 5660 5659 5659 5658 5657 5656 5655 5654 5652 5651 5649 5647 5645 5643 5640 5637 5634 5631 5628 5625 5622 5619 5616 5614 5611 5609 5607 5605 5602 5600 5598 5596
5679 5677 5675 5673 5671 5669 5668 5666 5664 5662 5661 5660 5659 5658 5657 5657 5656 5655 5653 5652 5650 5648 5646 5644 5641 5639 5636 5633 5630 5627 5624 5621 5619 5616 5613 5611 5609 5607 5605 5603 5601 5599 5596
5680 5678 5676 5674 5672 5670 5668 5666 5664 5662 5661 5660 5659 5658 5658 5657 5656 5655 5653 5652 5650 5648 5646 5643 5641 5638 5635 5632 5629 5626 5624 5621 5618 5616 5614 5612 5610 5608 5606 5604 5602 5600 5598
5682 5679 5677 5675 5673 5670 5668 5666 5665 5663 5662 5661 5660 5659 5658 5657 5656 5655 5653 5652 5650 5647 5645 5643 5640 5637 5635 5632 5629 5626 5624 5621 5619 5616 5614 5612 5611 5609 5607 5605 5603 5601 5600
5684 5682 5679 5677 5674 5672 5670 5668 5666 5665 5663 5662 5661 5660 5659 5658 5657 5655 5654 5652 5650 5648 5645 5643 5640 5637 5635 5632 5629 5627 5624 5622 5620 5618 5616 5614 5612 5610 5609 5607 5606 5604 5602
5687 5684 5682 5679 5677 5674 5672 5670 5668 5666 5665 5664 5663 5662 5660 5659 5658 5656 5654 5652 5650 5648 5646 5643 5641 5638 5636 5633 5631 5628 5626 5624 5622 5620 5618 5616 5615 5613 5611 5610 5608 5607 5606
5690 5687 5684 5682 5679 5677 5675 5673 5671 5669 5667 5666 5664 5663 5662 5661 5659 5658 5656 5654 5652 5650 5647 5645 5642 5640 5637 5635 5633 5630 5628 5626 5624 5623 5621 5619 5618 5616 5615 5613 5612 5611 5610